Location: Hohe Wand Waldeggerhaus
(47.8500°N, 16.0440°E)
Time: 13:13:16
(UTC+02:00)

Tiangong - Visible Passes

Search period start: 21 May 2024 00:00
Search period end: 31 May 2024 00:00
Orbit: 371 x 375 km, 41.5° (Epoch: 21 May)

Date Brightness Start Highest point End Pass type
(mag) Time Alt. Az. Time Alt. Az. Time Alt. Az.
24 May 0.1 03:59:31 10° S 04:01:01 13° SSE 04:02:30 10° SE visible
26 May -0.3 03:29:32 16° S 03:29:57 16° SSE 03:31:58 10° ESE visible
27 May -0.8 04:00:20 14° SW 04:02:15 23° S 04:04:47 10° ESE visible
28 May -0.3 02:59:09 18° SSE 02:59:09 18° SSE 03:00:47 10° ESE visible
29 May -0.9 03:29:49 22° SSW 03:30:36 24° S 03:33:11 10° ESE visible
30 May 0.3 02:28:33 13° SE 02:28:33 13° SE 02:29:04 10° ESE visible
30 May -0.8 04:00:28 12° WSW 04:02:37 23° S 04:05:07 10° SE visible
